Home   Weather   Lugo   Past weeks

Flag for Spain Past Weather in Lugo, Galicia, Spain — Yesterday and Last 2 Weeks

Now
54 °F

Passing clouds.


Feels Like: 54 °F
Forecast: 40 / 58 °F
Wind: 2 mph from North

Location: Santiago / Labacolla

Current Time: Dec 10, 2016 at 9:44:55 pm

Latest Report: Dec 10, 2016 at 9:00 pm


Visibility: N/A

Pressure: 30.30 "Hg

Humidity: 82%

Dew Point: 48 °F

Location of LugoLocation

Past Weather in Lugo — Graph

°F

Lugo Temperature Yesterday

Maximum temperature yesterday: 61 °F (at 3:00 pm)
Minimum temperature yesterday: 46 °F (at 2:00 am)
Average temperature yesterday: 52 °F

High & Low Weather Summary for the Past Weeks

 TemperatureHumidityPressure
High64 °F (Dec 5, 1:30 pm)100% (Nov 27, 4:00 am)30.39 "Hg (Nov 27, 4:00 am)
Low37 °F (Nov 28, 7:00 am)55% (Dec 9, 2:00 pm)29.65 "Hg (Dec 3, 3:30 pm)
Average51 °F77%30.07 "Hg
* Reported Nov 25 8:00 pm — Dec 10 8:30 pm, Lugo, Weather by CustomWeather, © 2016

Note: Actual official high and low records may vary slightly from our data, if they occured in-between our weather recording intervals... More about our weather records

Advertising

Lugo Weather History for the Previous 24 Hours

Scroll right to see more
 ConditionsComfort  
Time TempWeatherWind HumidityBarometerVisibility
8:30 pm
Sat, Dec 10
52 °FPassing clouds.3 mph88%30.30 "HgN/A
8:00 pm54 °FPassing clouds.3 mph82%30.30 "HgN/A
7:30 pm54 °FClear.1 mph82%30.30 "Hg10 mi
7:00 pm54 °FClear.No wind82%30.27 "Hg10 mi
6:30 pm55 °FClear.1 mph82%30.27 "Hg10 mi
6:00 pm55 °FPassing clouds.3 mph82%30.27 "HgN/A
5:30 pm57 °FPassing clouds.5 mph77%30.27 "HgN/A
5:00 pm59 °FPassing clouds.5 mph72%30.27 "HgN/A
4:30 pm59 °FPassing clouds.5 mph72%30.27 "HgN/A
4:00 pm59 °FPassing clouds.3 mph72%30.27 "HgN/A
3:30 pm59 °FPassing clouds.7 mph72%30.27 "HgN/A
3:00 pm59 °FScattered clouds.8 mph68%30.27 "HgN/A
2:30 pm59 °FScattered clouds.8 mph68%30.27 "HgN/A
2:00 pm59 °FScattered clouds.9 mph68%30.27 "HgN/A
1:30 pm57 °FScattered clouds.8 mph67%30.30 "HgN/A
1:00 pm55 °FScattered clouds.9 mph72%30.30 "HgN/A
12:30 pm55 °FScattered clouds.13 mph72%30.30 "HgN/A
12:00 pm54 °FScattered clouds.13 mph77%30.30 "HgN/A
11:30 am52 °FScattered clouds.14 mph77%30.30 "HgN/A
11:00 am50 °FScattered clouds.10 mph82%30.30 "HgN/A
10:30 am50 °FPartly sunny.12 mph76%30.30 "HgN/A
10:00 am50 °FPartly sunny.12 mph76%30.30 "HgN/A
9:30 am50 °FPartly sunny.12 mph76%30.27 "HgN/A
9:00 am50 °FScattered clouds.13 mph76%30.27 "HgN/A
8:30 am48 °FPassing clouds.12 mph82%30.27 "HgN/A
8:00 am48 °FPassing clouds.12 mph76%30.24 "HgN/A
7:30 am50 °FPassing clouds.13 mph71%30.27 "HgN/A
7:00 am50 °FPassing clouds.13 mph71%30.27 "HgN/A
6:30 am48 °FPassing clouds.12 mph76%30.24 "HgN/A
6:00 am48 °FPassing clouds.10 mph76%30.27 "HgN/A
5:30 am48 °FPassing clouds.10 mph76%30.27 "HgN/A
5:00 am50 °FPassing clouds.10 mph71%30.27 "HgN/A
4:30 am50 °FPartly cloudy.9 mph71%30.27 "HgN/A
4:00 am50 °FPassing clouds.8 mph71%30.30 "HgN/A
3:30 am50 °FPassing clouds.10 mph71%30.30 "HgN/A
3:00 am52 °FPassing clouds.9 mph67%30.30 "HgN/A
2:30 am50 °FPassing clouds.8 mph71%30.30 "HgN/A
2:00 am50 °FPassing clouds.10 mph71%30.30 "HgN/A
1:30 am50 °FPassing clouds.9 mph71%30.30 "HgN/A
1:00 am52 °FPassing clouds.9 mph67%30.33 "HgN/A
12:30 am52 °FPassing clouds.9 mph67%30.33 "HgN/A
12:00 am52 °FPassing clouds.9 mph67%30.33 "HgN/A
11:30 pm
Fri, Dec 9
52 °FPassing clouds.9 mph67%30.33 "HgN/A
11:00 pm52 °FClear.12 mph67%30.33 "Hg10 mi
10:30 pm52 °FClear.10 mph67%30.33 "Hg10 mi
10:00 pm52 °FClear.10 mph67%30.33 "Hg10 mi
9:30 pm52 °FClear.10 mph67%30.33 "Hg10 mi
9:00 pm52 °FClear.10 mph67%30.33 "Hg10 mi
Weather by CustomWeather, © 2016

See weather overviewHow to use our weather pages